Regional Weather Roundup
Issued by NWS Albany, NY

Home | Current Version | Previous Version | Text Only | Print | Product List | Glossary On
Versions: 1 2 3 4 5 6 7 8 9 10 11 12 13 14 15 16 17 18 19 20 21 22 23 24 25 26 27 28 29 30 31 32 33 34 35 36 37 38 39 40 41 42 43 44 45 46 47 48 49 50
000
ASUS41 KALY 241110
RWRALY

NEW YORK STATE HOURLY WEATHER ROUNDUP
NATIONAL WEATHER SERVICE ALBANY NY
600 AM EST FRI FEB 24 2017

NOTE: "FAIR" INDICATES FEW OR NO CLOUDS BELOW 12,000 FEET WITH NO
SIGNIFICANT WEATHER AND/OR NO OBSTRUCTIONS TO VISIBILITY.

NYZ032-033-038>043-046>054-057>066-NYZ062>081-082-084-241200-
EAST


CITY           SKY/WX    TMP DP  RH WIND       PRES   REMARKS
ALBANY         CLOUDY    44  42  93 NW5       29.90S
GLENS FALLS    PTCLDY    38  35  89 CALM      29.90S
POUGHKEEPSIE   FOG       46  46 100 CALM      29.90R VSB 1/2
NEWBURGH       MOCLDY    48  48 100 CALM      29.91R
MONTGOMERY     FOG       46  45  96 CALM      29.89S VSB 1/4
WHITE PLAINS   PTCLDY    47  45  93 S5        29.92S
ISLIP          MOCLDY    45  45 100 S5        29.95R
NEW YORK CITY  CLOUDY    53  48  83 S6        29.92F
CENTRAL PARK   PTCLDY    58  52  80 VRB7      29.94F
$$

NYZ005>009-017-018-044>046-055-056-241200-
CENTRAL


CITY           SKY/WX    TMP DP  RH WIND       PRES   REMARKS
FULTON         CLOUDY    41  38  89 CALM      29.86F
SYRACUSE       MOCLDY    39  37  92 E5        29.85F
ROME           CLOUDY    39  38  96 SE3       29.88F
ELMIRA         CLOUDY    45  41  86 CALM      29.83F
BINGHAMTON     CLOUDY    46  46 100 SE8       29.84F FOG
MONTICELLO       N/A     48  48 100 CALM      29.91S VSB 1/2
$$

NYZ026>034-041>043-087-241200-
NORTH


CITY           SKY/WX    TMP DP  RH WIND       PRES   REMARKS
WATERTOWN      MOCLDY    37  36  96 NE10      29.88F WCI  30
FORT DRUM      NOT AVBL
OGDENSBURG     CLOUDY    37  34  89 N3        29.94R
MASSENA        CLOUDY    38  34  85 NW3       29.94S
SARANAC LAKE   CLOUDY    32  32 100 CALM      29.87S
PLATTSBURGH    CLOUDY    35  33  92 CALM      29.92R
$$

NYZ001>004-010>016-019>021-085-241200-
WEST


CITY           SKY/WX    TMP DP  RH WIND       PRES   REMARKS
NIAGARA FALLS  LGT RAIN  42  38  85 E15       29.79F
BUFFALO        RAIN      42  40  92 NE7       29.80S
DUNKIRK        LGT RAIN  40  40 100 NE7       29.79S FOG
JAMESTOWN        N/A     52  48  87 S8        29.77F
WELLSVILLE     MOCLDY    55  51  86 CALM      29.82S
ROCHESTER      CLOUDY    43  40  89 E10       29.83F
PENN YAN       CLOUDY    44  39  82 CALM      29.83F
$$

             KEY
       WCI = WIND CHILL INDEX
       VSB = VISIBILITY
       HX  = HEAT INDEX
$$



USA.gov is the U.S. government's official web portal to all federal, state and local government web resources and services.